Starlink 32831

operational
NORAD ID: 62860 Int'l Des: 2025-022 Owner: SPXS Country: US Constellation: starlink
LEOCIRCULAR

About Starlink 32831

Description loading...

Live Position

Loading 3D Globe...

Upcoming Passes

Altitude History

Altitude vs Time

uPlot chart will show altitude changes over time

Two-Line Element Set

1 62860U 25022G 25354.54680247 .00016002 00000-0 55097-3 0 9996
2 62860 53.1575 137.1795 0001493 81.8519 278.2651 15.30215302 49772
Epoch: Dec 20, 2025 • Age: 10 hours

Current Status

Altitude 475.6 km
Velocity 7.63 km/s
Sub-Earth Point 24.60°N, 142.13°W
Launch Date Feb 2, 2025
Age 0.8 years
Type internet

Technical Details

Classification Payload
Mass 730.00 kg
Dry Mass 700.00 kg
Total Mass 730.00 kg
Length 0.30 m
Diameter 4.10 m
Span 29.00 m
Shape Box + pan
Manufacturer SPXS
Bus Type Starlink V2M
Phase Status In Orbit
Owner/State SPXS/US

Large Constellations

Loading constellations...